Location: Newark
(40.3500°N, 15.2333°E)
Time: 18:42:39
(UTC+00:00)

Altair - Pass Details

Date: 19 January 2020
Orbit: 1502 x 1682 km, 47.2° (Epoch: 25 February)

Event Time Altitude Azimuth Distance (km) Brightness Sun altitude
Rises 14:29:25 0° 296° (WNW) 4,930 10.4 13.6°
Reaches altitude 10° 14:32:36 10° 297° (WNW) 3,931 10.0 13.1°
Maximum altitude 14:42:45 89° 29° (NNE) 1,641 7.9 11.7°
Drops below altitude 10° 14:52:30 10° 120° (ESE) 3,795 9.4 10.2°
Sets 14:55:32 0° 120° (ESE) 4,754 9.8 9.8°
